sat.trackr.live / text

‹ back to catalog

UNKNOWN

NORAD 82965

UNKNOWN UNKNOWN UNKNOWN

§ Identity

Operator
Country
Launch date
Launch site
Launch vehicle
Mass (kg)
RCS (m²)

External: N2YO · Heavens-Above

§ Orbital elements

Epoch: 2026-05-05T17:01:30.025920Z

Period
105.86 min
Inclination
100.1067°
Eccentricity
0.0003826
Mean motion
13.60331309 rev/d
Perigee alt
1,031.7 km
Apogee alt
1,037.3 km
Semi-major
7,412.6 km
B*
1.2116e-3
RAAN
214.8758°
Arg perigee
129.6972°
Mean anomaly
230.4504°
Rev number
54,402

§ Raw data

UNKNOWN1 82965U          26125.70937530  .00000861  00000+0  12116-2 0  99972 82965 100.1067 214.8758 0003826 129.6972 230.4504 13.60331309544029

JSON: /api/v1/satellites/82965 · /tle

For live sub-satellite position, see the globe view (requires WebGL).

§ Visibility from observer

Set your observer location to see the next 7 days of passes ≥ 10°. The values pass through the URL so the page stays shareable.

No JS? Fill the form by hand. The geolocation button needs JavaScript.